Погода в Васькове

Россия / Архангельская область     64°24′46″N   40°27′29″E
темп.,
°C
ветер,
м/с
пор.,
м/с
влажн.,
%
обл.,
%
осадки,
мм/ч
давл.,
гПа
погр.,
м
28 января, чт
чт2800:00−3з1198100 0.9 100024
03:00−4ссз129899 1.6 100128
06:00−5с129783 0.2 100340
09:00−10ссв249689 0.3 1006124
12:00−12ссв249582 0.1 1009160
15:00−14всв249685 0.1 1011179
18:00−16всв249780 0.1 1013129
21:00−16в379688 0.1 1013235
29 января, пт
пт2900:00−16в3795100 0.1 1014257
03:00−16в3795100 0.1 1013244
06:00−14в4894100 0.1 1012257
09:00−13в4994100 0.1 1011309
12:00−11в51193100 0.2 1009380
15:00−9в51292100 0.4 1007452
18:00−9в51294100 0.6 1005457
21:00−9в51192100 1.3 1003508
30 января, сб
сб3000:00−8в51193100 0.8 1002527
03:00−8вюв51193100 1.5 1001496
06:00−7вюв4993100 0.2 1000569
09:00−8вюв4992100 0.3 999483
12:00−8вюв4894100 0.6 998528
15:00−8вюв3795100 2.0 997503
18:00−8вюв3795100 1.1 996412
21:00−8юв3894100 1.5 996330
31 января, вс
вс3100:00−9юв2795100 0.1 996245
03:00−9юв279698 0.1 997224
06:00−10юв389693 0.1 996224
09:00−11юв379794 0.1 997174
12:00−10юв389584 0.0 998279
15:00−9вюв379692 0.1 998258
18:00−10вюв3995100 0.1 998352
21:00−10вюв3895100 0.1 997335
1 февраля, пн
пн100:00−8в3895100 0.5 995412
03:00−6в3896100 1.3 993466
06:00−5в3796100 1.0 991432
09:00−5всв3796100 1.6 991351
12:00−3всв1497100 1.1 991211
15:00−3зюз2398100 2.6 993202
18:00−5з4995100 0.9 995431
21:00−8зюз41094100 1.4 997384